BLY2039 EGSS-EGPH

Flight info

Callsign BLY2039
Flight time 0h 56m
Altitude 32000
Route UTAVA Q75 BUZAD T420 TNT UN57 POL UN601 RIBEL DCT INPIP
Aircraft A320/M-SDE3FGHIRWY/LB1

Departure

Time 2026-04-21 20:56
Airport London Stansted Airport (EGSS)

Arrival

Time 2026-04-21 21:52
Airport Edinburgh Airport (EGPH)
Time Latitude Longitude Altitude Speed Heading
2026-04-21 20:26 51.89470 0.26462 347 ft 0 kts 222°
2026-04-21 20:32 51.89471 0.26464 345 ft 1 kts 222°
2026-04-21 20:33 51.89473 0.26466 345 ft 2 kts 221°
2026-04-21 20:34 51.89484 0.26485 356 ft 2 kts 223°
2026-04-21 20:34 51.89490 0.26493 355 ft 0 kts 222°
2026-04-21 20:34 51.89493 0.26498 347 ft 2 kts 221°
2026-04-21 20:35 51.89502 0.26519 354 ft 2 kts 270°
2026-04-21 20:35 51.89498 0.26544 349 ft 2 kts 294°
2026-04-21 20:35 51.89494 0.26569 349 ft 2 kts 303°
2026-04-21 20:35 51.89489 0.26579 356 ft 0 kts 320°
2026-04-21 20:37 51.89504 0.26559 346 ft 11 kts 320°
2026-04-21 20:37 51.89574 0.26441 351 ft 0 kts 311°
2026-04-21 20:39 51.89576 0.26438 351 ft 1 kts 311°
2026-04-21 20:39 51.89581 0.26429 351 ft 0 kts 311°
2026-04-21 20:41 51.89583 0.26424 351 ft 4 kts 311°
2026-04-21 20:41 51.89610 0.26377 355 ft 7 kts 312°
2026-04-21 20:41 51.89648 0.26309 347 ft 9 kts 313°
2026-04-21 20:41 51.89701 0.26223 350 ft 12 kts 315°
2026-04-21 20:42 51.89721 0.26096 347 ft 15 kts 232°
2026-04-21 20:42 51.89643 0.25974 346 ft 16 kts 223°
2026-04-21 20:42 51.89565 0.25857 349 ft 13 kts 223°
2026-04-21 20:42 51.89493 0.25749 346 ft 15 kts 223°
2026-04-21 20:43 51.89412 0.25628 348 ft 17 kts 223°
2026-04-21 20:43 51.89324 0.25496 344 ft 16 kts 222°
2026-04-21 20:43 51.89238 0.25369 352 ft 18 kts 222°
2026-04-21 20:43 51.89142 0.25225 343 ft 20 kts 224°
2026-04-21 20:44 51.89043 0.25074 347 ft 20 kts 223°
2026-04-21 20:44 51.88937 0.24913 346 ft 22 kts 222°
2026-04-21 20:44 51.88828 0.24750 349 ft 19 kts 223°
2026-04-21 20:44 51.88728 0.24600 348 ft 21 kts 223°
2026-04-21 20:45 51.88622 0.24443 352 ft 18 kts 223°
2026-04-21 20:45 51.88525 0.24297 347 ft 20 kts 223°
2026-04-21 20:45 51.88416 0.24134 347 ft 18 kts 223°
2026-04-21 20:45 51.88355 0.24041 339 ft 8 kts 223°
2026-04-21 20:46 51.88309 0.23971 338 ft 10 kts 223°
2026-04-21 20:46 51.88250 0.23881 337 ft 13 kts 223°
2026-04-21 20:46 51.88177 0.23773 337 ft 15 kts 222°
2026-04-21 20:46 51.88092 0.23646 335 ft 18 kts 223°
2026-04-21 20:47 51.88016 0.23533 335 ft 15 kts 223°
2026-04-21 20:47 51.87935 0.23411 337 ft 17 kts 223°
2026-04-21 20:47 51.87850 0.23285 333 ft 17 kts 223°
2026-04-21 20:47 51.87765 0.23157 332 ft 16 kts 224°
2026-04-21 20:48 51.87734 0.23038 336 ft 12 kts 295°
2026-04-21 20:48 51.87793 0.22920 333 ft 15 kts 314°
2026-04-21 20:48 51.87839 0.22849 336 ft 0 kts 316°
2026-04-21 20:51 51.87841 0.22845 336 ft 2 kts 316°
2026-04-21 20:51 51.87856 0.22822 336 ft 4 kts 316°
2026-04-21 20:52 51.87873 0.22791 335 ft 0 kts 311°
2026-04-21 20:53 51.87910 0.22720 333 ft 21 kts 311°
2026-04-21 20:53 51.87974 0.22696 333 ft 0 kts 33°
2026-04-21 20:55 51.87975 0.22697 333 ft 1 kts 33°
2026-04-21 20:55 51.88026 0.22773 330 ft 36 kts 42°
2026-04-21 20:55 51.88373 0.23288 334 ft 97 kts 43°
2026-04-21 20:55 51.88985 0.24200 338 ft 140 kts 42°
2026-04-21 20:56 51.89747 0.25375 662 ft 155 kts 45°
2026-04-21 20:56 51.90507 0.26651 1247 ft 159 kts 48°
2026-04-21 20:56 51.91275 0.27894 1964 ft 154 kts 46°
2026-04-21 20:56 51.92177 0.28832 2561 ft 158 kts 29°
2026-04-21 20:57 51.93309 0.29279 2914 ft 180 kts 13°
2026-04-21 20:57 51.94642 0.29244 3166 ft 205 kts 359°
2026-04-21 20:57 51.96062 0.28464 3496 ft 235 kts 329°
2026-04-21 20:57 51.97099 0.26215 3824 ft 268 kts 293°
2026-04-21 20:58 51.97599 0.23179 4379 ft 284 kts 281°
2026-04-21 20:58 51.97871 0.19987 5217 ft 289 kts 277°
2026-04-21 20:58 51.98086 0.16739 6097 ft 292 kts 277°
2026-04-21 20:58 51.98324 0.13411 6937 ft 295 kts 278°
2026-04-21 20:59 51.98614 0.10101 7734 ft 298 kts 283°
2026-04-21 20:59 51.99383 0.06999 8499 ft 298 kts 306°
2026-04-21 20:59 52.00684 0.04381 9278 ft 299 kts 313°
2026-04-21 20:59 52.02045 0.01806 10060 ft 302 kts 313°
2026-04-21 21:00 52.03433 -0.00811 10646 ft 313 kts 313°
2026-04-21 21:00 52.04903 -0.03578 10814 ft 336 kts 313°
2026-04-21 21:00 52.06458 -0.06517 11195 ft 348 kts 312°
2026-04-21 21:00 52.08044 -0.09536 11831 ft 352 kts 312°
2026-04-21 21:01 52.09636 -0.12588 12535 ft 355 kts 312°
2026-04-21 21:01 52.11235 -0.15660 13218 ft 357 kts 312°
2026-04-21 21:01 52.12322 -0.17750 13681 ft 358 kts 312°
2026-04-21 21:01 52.14463 -0.21863 14534 ft 361 kts 312°
2026-04-21 21:02 52.16094 -0.24992 15118 ft 364 kts 312°
2026-04-21 21:02 52.17739 -0.28149 15694 ft 366 kts 312°
2026-04-21 21:02 52.18853 -0.30286 16093 ft 367 kts 312°
2026-04-21 21:02 52.20511 -0.33471 16671 ft 370 kts 311°
2026-04-21 21:03 52.22178 -0.36677 17244 ft 372 kts 312°
2026-04-21 21:03 52.23857 -0.39915 17806 ft 375 kts 311°
2026-04-21 21:03 52.25544 -0.43179 18385 ft 377 kts 311°
2026-04-21 21:03 52.27236 -0.46458 18923 ft 379 kts 311°
2026-04-21 21:04 52.28939 -0.49760 19489 ft 380 kts 311°
2026-04-21 21:04 52.30646 -0.53072 20033 ft 381 kts 311°
2026-04-21 21:04 52.32352 -0.56390 20599 ft 382 kts 311°
2026-04-21 21:04 52.34069 -0.59728 20889 ft 390 kts 311°
2026-04-21 21:05 52.35847 -0.63185 21027 ft 402 kts 311°
2026-04-21 21:05 52.37673 -0.66735 21161 ft 412 kts 311°
2026-04-21 21:05 52.39540 -0.70371 21293 ft 422 kts 311°
2026-04-21 21:05 52.41448 -0.74094 21424 ft 431 kts 311°
2026-04-21 21:06 52.43413 -0.77938 21558 ft 438 kts 311°
2026-04-21 21:06 52.45387 -0.81809 21682 ft 445 kts 310°
2026-04-21 21:06 52.47381 -0.85729 21820 ft 451 kts 310°
2026-04-21 21:06 52.49404 -0.89720 21961 ft 456 kts 310°
2026-04-21 21:07 52.51437 -0.93739 22223 ft 459 kts 310°
2026-04-21 21:07 52.53478 -0.97778 22484 ft 461 kts 310°
2026-04-21 21:07 52.55529 -1.01837 22758 ft 461 kts 310°
2026-04-21 21:07 52.57552 -1.05882 23280 ft 457 kts 310°
2026-04-21 21:08 52.59565 -1.09900 23647 ft 453 kts 310°
2026-04-21 21:08 52.61570 -1.13863 24160 ft 448 kts 310°
2026-04-21 21:08 52.63556 -1.17780 24668 ft 444 kts 310°
2026-04-21 21:08 52.65533 -1.21701 25153 ft 440 kts 310°
2026-04-21 21:09 52.67462 -1.25545 25632 ft 437 kts 310°
2026-04-21 21:09 52.69482 -1.29250 26115 ft 433 kts 316°
2026-04-21 21:09 52.71783 -1.32407 26609 ft 430 kts 324°
2026-04-21 21:09 52.74303 -1.35053 27278 ft 427 kts 327°
2026-04-21 21:10 52.76806 -1.37592 28220 ft 411 kts 327°
2026-04-21 21:10 52.79157 -1.39982 29855 ft 385 kts 327°
2026-04-21 21:10 52.81414 -1.42284 31029 ft 369 kts 326°
2026-04-21 21:10 52.83565 -1.44484 31636 ft 364 kts 326°
2026-04-21 21:11 52.85735 -1.46709 32028 ft 365 kts 326°
2026-04-21 21:11 52.87886 -1.48923 32336 ft 367 kts 326°
2026-04-21 21:11 52.92232 -1.53403 32399 ft 368 kts 326°
2026-04-21 21:12 52.96578 -1.57874 32406 ft 368 kts 326°
2026-04-21 21:12 53.00946 -1.62374 32410 ft 369 kts 326°
2026-04-21 21:13 53.05368 -1.66821 32404 ft 371 kts 331°
2026-04-21 21:13 53.10164 -1.69950 32407 ft 373 kts 336°
2026-04-21 21:14 53.15069 -1.72982 32415 ft 374 kts 336°
2026-04-21 21:14 53.19945 -1.75996 32417 ft 374 kts 336°
2026-04-21 21:15 53.24824 -1.79027 32445 ft 374 kts 336°
2026-04-21 21:15 53.29781 -1.82139 32421 ft 388 kts 336°
2026-04-21 21:16 53.34862 -1.85321 32418 ft 392 kts 336°
2026-04-21 21:16 53.39981 -1.88519 32415 ft 392 kts 336°
2026-04-21 21:17 53.45089 -1.91736 32423 ft 392 kts 336°
2026-04-21 21:17 53.50201 -1.94959 32423 ft 392 kts 336°
2026-04-21 21:18 53.55313 -1.98187 32433 ft 393 kts 336°
2026-04-21 21:18 53.60428 -2.01433 32434 ft 392 kts 336°
2026-04-21 21:19 53.65536 -2.04684 32432 ft 393 kts 336°
2026-04-21 21:19 53.70683 -2.07969 32434 ft 393 kts 336°
2026-04-21 21:20 53.75747 -2.11210 32430 ft 393 kts 335°
2026-04-21 21:20 53.80869 -2.14661 32427 ft 393 kts 335°
2026-04-21 21:21 53.85930 -2.18171 32432 ft 393 kts 334°
2026-04-21 21:21 53.91003 -2.21677 32433 ft 394 kts 335°
2026-04-21 21:22 53.96079 -2.25165 32440 ft 394 kts 335°
2026-04-21 21:22 54.01161 -2.28660 32446 ft 394 kts 335°
2026-04-21 21:23 54.06258 -2.32173 32440 ft 395 kts 335°
2026-04-21 21:23 54.11334 -2.35682 32443 ft 396 kts 335°
2026-04-21 21:24 54.16463 -2.39235 32446 ft 396 kts 335°
2026-04-21 21:24 54.21603 -2.42805 32447 ft 396 kts 335°
2026-04-21 21:25 54.26723 -2.46372 32438 ft 399 kts 335°
2026-04-21 21:25 54.31882 -2.49980 32430 ft 401 kts 335°
2026-04-21 21:26 54.37057 -2.53618 32441 ft 403 kts 335°
2026-04-21 21:26 54.42254 -2.57267 32448 ft 404 kts 335°
2026-04-21 21:27 54.47465 -2.60924 32463 ft 405 kts 335°
2026-04-21 21:27 54.52683 -2.64604 32450 ft 408 kts 336°
2026-04-21 21:28 54.57951 -2.68339 32451 ft 410 kts 336°
2026-04-21 21:29 54.65842 -2.73978 32495 ft 408 kts 335°
2026-04-21 21:29 54.71110 -2.77739 32501 ft 407 kts 335°
2026-04-21 21:30 54.76328 -2.81472 31843 ft 405 kts 335°
2026-04-21 21:30 54.78926 -2.83329 31260 ft 399 kts 335°
2026-04-21 21:30 54.81472 -2.85148 30470 ft 393 kts 335°
2026-04-21 21:30 54.83979 -2.86948 29529 ft 387 kts 335°
2026-04-21 21:31 54.86462 -2.88739 28589 ft 384 kts 336°
2026-04-21 21:31 54.88915 -2.90512 27651 ft 381 kts 336°
2026-04-21 21:31 54.90536 -2.91685 27047 ft 380 kts 336°
2026-04-21 21:31 54.92999 -2.93469 26165 ft 377 kts 336°
2026-04-21 21:32 54.95419 -2.95223 25331 ft 376 kts 337°
2026-04-21 21:32 54.97830 -2.96971 24490 ft 375 kts 338°
2026-04-21 21:32 55.00261 -2.98735 23606 ft 381 kts 338°
2026-04-21 21:32 55.02709 -3.00511 23069 ft 381 kts 338°
2026-04-21 21:33 55.05143 -3.02275 22592 ft 378 kts 338°
2026-04-21 21:33 55.07570 -3.04040 22085 ft 377 kts 338°
2026-04-21 21:33 55.09983 -3.05802 21562 ft 376 kts 338°
2026-04-21 21:33 55.12392 -3.07562 21224 ft 370 kts 338°
2026-04-21 21:34 55.14732 -3.09274 21079 ft 359 kts 338°
2026-04-21 21:34 55.16996 -3.10931 20900 ft 350 kts 338°
2026-04-21 21:34 55.19227 -3.12569 20570 ft 346 kts 338°
2026-04-21 21:34 55.21448 -3.14204 20190 ft 345 kts 338°
2026-04-21 21:35 55.23645 -3.15822 19633 ft 340 kts 338°
2026-04-21 21:35 55.25820 -3.17421 18992 ft 338 kts 339°
2026-04-21 21:35 55.27993 -3.18991 18290 ft 336 kts 342°
2026-04-21 21:35 55.30245 -3.19956 17623 ft 331 kts 356°
2026-04-21 21:36 55.32544 -3.20019 17000 ft 323 kts
2026-04-21 21:36 55.34764 -3.19655 16381 ft 319 kts
2026-04-21 21:36 55.36937 -3.19312 15807 ft 316 kts
2026-04-21 21:36 55.39138 -3.18975 15241 ft 312 kts
2026-04-21 21:37 55.41290 -3.18645 14687 ft 308 kts
2026-04-21 21:37 55.43446 -3.18310 13714 ft 316 kts
2026-04-21 21:37 55.45631 -3.17965 13188 ft 308 kts
2026-04-21 21:37 55.47737 -3.17639 12683 ft 300 kts
2026-04-21 21:38 55.49804 -3.17316 12263 ft 298 kts
2026-04-21 21:38 55.51859 -3.16992 11973 ft 295 kts
2026-04-21 21:38 55.53899 -3.16670 11667 ft 293 kts
2026-04-21 21:38 55.55921 -3.16348 11351 ft 292 kts
2026-04-21 21:39 55.57939 -3.16026 11034 ft 290 kts
2026-04-21 21:39 55.59948 -3.15728 10720 ft 289 kts
2026-04-21 21:39 55.61945 -3.15421 10399 ft 288 kts
2026-04-21 21:39 55.63932 -3.15111 10067 ft 286 kts
2026-04-21 21:40 55.65911 -3.14812 9751 ft 284 kts
2026-04-21 21:40 55.67874 -3.14520 9434 ft 282 kts
2026-04-21 21:40 55.69814 -3.14263 9265 ft 276 kts
2026-04-21 21:40 55.71665 -3.14993 9129 ft 276 kts 336°
2026-04-21 21:41 55.73111 -3.17159 9009 ft 273 kts 306°
2026-04-21 21:41 55.73818 -3.20223 8847 ft 268 kts 280°
2026-04-21 21:41 55.74056 -3.23487 8607 ft 266 kts 275°
2026-04-21 21:41 55.74221 -3.26748 8528 ft 265 kts 275°
2026-04-21 21:42 55.74374 -3.30025 8538 ft 267 kts 275°
2026-04-21 21:42 55.74524 -3.33310 8541 ft 267 kts 275°
2026-04-21 21:42 55.74673 -3.36607 8542 ft 268 kts 275°
2026-04-21 21:42 55.74824 -3.39939 8501 ft 266 kts 275°
2026-04-21 21:43 55.74972 -3.43204 8233 ft 265 kts 275°
2026-04-21 21:43 55.75119 -3.46455 7955 ft 264 kts 275°
2026-04-21 21:43 55.75265 -3.49702 7683 ft 263 kts 275°
2026-04-21 21:43 55.75407 -3.52929 7410 ft 262 kts 275°
2026-04-21 21:44 55.75547 -3.56140 7133 ft 261 kts 274°
2026-04-21 21:44 55.75686 -3.59355 6848 ft 260 kts 275°
2026-04-21 21:44 55.75885 -3.62526 6542 ft 258 kts 287°
2026-04-21 21:44 55.76723 -3.65245 6158 ft 248 kts 319°
2026-04-21 21:45 55.78081 -3.67066 5637 ft 244 kts 333°
2026-04-21 21:45 55.79532 -3.68618 5170 ft 242 kts 334°
2026-04-21 21:45 55.80928 -3.70085 5032 ft 224 kts 334°
2026-04-21 21:45 55.82219 -3.71462 4899 ft 208 kts 335°
2026-04-21 21:46 55.83492 -3.72306 4631 ft 187 kts
2026-04-21 21:46 55.84541 -3.71411 4362 ft 166 kts 59°
2026-04-21 21:46 55.84740 -3.69500 4158 ft 164 kts 95°
2026-04-21 21:46 55.84808 -3.67481 3943 ft 163 kts 67°
2026-04-21 21:47 55.85393 -3.65748 3731 ft 162 kts 65°
2026-04-21 21:47 55.85917 -3.64023 3508 ft 153 kts 63°
2026-04-21 21:47 55.86431 -3.62441 3318 ft 145 kts 63°
2026-04-21 21:47 55.86941 -3.60915 3110 ft 142 kts 62°
2026-04-21 21:48 55.87448 -3.59418 2918 ft 140 kts 62°
2026-04-21 21:48 55.87952 -3.57936 2717 ft 139 kts 62°
2026-04-21 21:48 55.88460 -3.56449 2528 ft 139 kts 61°
2026-04-21 21:48 55.88958 -3.54988 2331 ft 138 kts 61°
2026-04-21 21:49 55.89458 -3.53526 2143 ft 138 kts 60°
2026-04-21 21:49 55.89953 -3.52075 1942 ft 137 kts 60°
2026-04-21 21:49 55.90447 -3.50627 1758 ft 138 kts 60°
2026-04-21 21:49 55.90940 -3.49183 1541 ft 138 kts 60°
2026-04-21 21:50 55.91446 -3.47698 1355 ft 139 kts 60°
2026-04-21 21:50 55.91939 -3.46250 1142 ft 130 kts 60°
2026-04-21 21:50 55.92403 -3.44890 961 ft 127 kts 59°
2026-04-21 21:50 55.92856 -3.43557 798 ft 124 kts 59°
2026-04-21 21:51 55.93303 -3.42243 630 ft 124 kts 59°
2026-04-21 21:51 55.93751 -3.40925 451 ft 124 kts 59°
2026-04-21 21:51 55.94196 -3.39613 252 ft 123 kts 59°
2026-04-21 21:51 55.94630 -3.38315 125 ft 116 kts 59°
2026-04-21 21:52 55.94937 -3.37411 107 ft 52 kts 56°
2026-04-21 21:52 55.95101 -3.36945 110 ft 41 kts 59°
2026-04-21 21:52 55.95237 -3.36538 103 ft 25 kts 59°
2026-04-21 21:52 55.95215 -3.36383 102 ft 11 kts 152°
2026-04-21 21:53 55.95210 -3.36377 101 ft 0 kts 147°
2026-04-21 21:53 55.95200 -3.36365 102 ft 9 kts 146°
2026-04-21 21:53 55.95139 -3.36321 104 ft 9 kts 200°
2026-04-21 21:54 55.95088 -3.36391 106 ft 9 kts 207°
2026-04-21 21:54 55.95043 -3.36349 106 ft 8 kts 121°
2026-04-21 21:54 55.95009 -3.36352 107 ft 6 kts 241°
2026-04-21 21:54 55.94981 -3.36471 106 ft 12 kts 221°
2026-04-21 21:55 55.94931 -3.36440 106 ft 8 kts 148°
2026-04-21 21:55 55.94923 -3.36432 106 ft 0 kts 148°